Location: Podia
(1.5569°N, 32.3469°E)
Time: 04:00:50
(UTC+00:00)

Hubble Space Telescope - Pass Details

Date: 11 May 2021
Orbit: 535 x 539 km, 28.5° (Epoch: 16 June)

Event Time Altitude Azimuth Distance (km) Brightness Sun altitude
Exits shadow 01:52:48 15° 143° (SE) 1,503 3.2 -26.5°
Drops below altitude 10° 01:54:42 10° 116° (ESE) 1,775 3.9 -26.1°
Sets 01:57:47 0° 92° (E) 2,663 5.4 -25.3°
